TimeMDT,TemperatureF,Dew PointF,Humidity,Sea Level PressureIn,VisibilityMPH,Wind Direction,Wind SpeedMPH,Gust SpeedMPH,PrecipitationIn,Events,Conditions,WindDirDegrees,DateUTC
12:53 AM,62.1,60.1,93,29.94,10.0,WSW,3.5,-,0.00,Rain,Light Rain,240,2013-09-10 06:53:00
1:53 AM,63.0,60.1,90,29.93,10.0,Calm,Calm,-,0.01,Rain,Light Rain,0,2013-09-10 07:53:00
2:53 AM,62.1,61.0,96,29.92,10.0,Calm,Calm,-,0.01,Rain,Light Rain,0,2013-09-10 08:53:00
3:53 AM,62.1,61.0,96,29.92,10.0,North,3.5,-,0.00,,Scattered Clouds,360,2013-09-10 09:53:00
4:53 AM,61.0,60.1,97,29.94,8.0,Calm,Calm,-,N/A,,Clear,0,2013-09-10 10:53:00
5:53 AM,61.0,60.1,97,29.99,7.0,SW,4.6,-,N/A,,Partly Cloudy,230,2013-09-10 11:53:00
6:53 AM,61.0,60.1,97,30.00,5.0,Calm,Calm,-,0.00,,Overcast,0,2013-09-10 12:53:00
7:53 AM,62.1,61.0,96,30.02,6.0,SW,4.6,-,0.01,Rain,Light Rain,220,2013-09-10 13:53:00
8:53 AM,64.0,62.1,93,30.04,9.0,WSW,5.8,-,0.01,Rain,Light Rain,250,2013-09-10 14:53:00
9:53 AM,64.9,62.1,90,30.06,7.0,West,4.6,-,0.01,Rain,Light Rain,280,2013-09-10 15:53:00
10:53 AM,66.0,61.0,84,30.07,10.0,West,3.5,-,0.01,,Overcast,280,2013-09-10 16:53:00
11:40 AM,69.8,62.6,78,30.16,10.0,Calm,Calm,-,N/A,,Mostly Cloudy,0,2013-09-10 17:40:00
11:53 AM,70.0,62.1,76,30.06,10.0,Calm,Calm,-,N/A,,Mostly Cloudy,0,2013-09-10 17:53:00
12:02 PM,71.6,60.8,69,30.16,10.0,Calm,Calm,-,N/A,,Scattered Clouds,0,2013-09-10 18:02:00
12:53 PM,71.1,60.1,68,30.05,10.0,NE,4.6,-,N/A,,Mostly Cloudy,40,2013-09-10 18:53:00
1:53 PM,73.0,60.1,64,30.04,10.0,WNW,3.5,-,N/A,,Overcast,300,2013-09-10 19:53:00
2:53 PM,73.9,59.0,59,30.04,10.0,NE,4.6,-,N/A,,Scattered Clouds,50,2013-09-10 20:53:00
3:53 PM,73.0,57.9,59,30.04,10.0,North,5.8,-,N/A,,Overcast,360,2013-09-10 21:53:00
4:53 PM,73.0,59.0,61,30.04,10.0,NNE,8.1,-,0.00,,Mostly Cloudy,30,2013-09-10 22:53:00
5:53 PM,72.0,59.0,64,30.04,10.0,NE,3.5,-,N/A,,Mostly Cloudy,50,2013-09-10 23:53:00
6:53 PM,66.9,60.1,79,30.07,10.0,South,4.6,-,N/A,,Mostly Cloudy,180,2013-09-11 00:53:00
7:53 PM,66.0,59.0,78,30.08,10.0,Calm,Calm,-,N/A,,Partly Cloudy,0,2013-09-11 01:53:00
8:53 PM,63.0,55.9,78,30.09,10.0,NE,4.6,-,N/A,,Partly Cloudy,50,2013-09-11 02:53:00
9:53 PM,62.1,57.9,86,30.11,10.0,Calm,Calm,-,N/A,,Mostly Cloudy,0,2013-09-11 03:53:00
10:53 PM,62.1,57.9,86,30.11,10.0,Calm,Calm,-,N/A,,Scattered Clouds,0,2013-09-11 04:53:00
11:53 PM,61.0,57.9,90,30.11,10.0,SSE,4.6,-,N/A,,Overcast,150,2013-09-11 05:53:00